Home > Weather > Rosenheim > Past weeks

Flag for Germany Past Weather in Rosenheim, Bavaria, Germany — Yesterday and Last 2 Weeks

Now
84 °F

Warm.


Feels Like: 84 °F
Forecast: 60 / 78 °F
Wind: 3 mph from Northeast

Location: Kufstein

Current Time: Jul 30, 2016 at 6:55:07 PM

Latest Report: Jul 30, 2016 at 6:00 PM


Visibility: N/A

Pressure: 29.84 "Hg

Humidity: 46%

Dew Point: 61 °F

Location of RosenheimLocation

Past Weather in Rosenheim — Graph

°F

Rosenheim Temperature Yesterday

Maximum temperature yesterday: 78 °F (at 5:00 PM)
Minimum temperature yesterday: 60 °F (at 4:00 AM)
Average temperature yesterday: 68 °F

High & Low Weather Summary for the Past Weeks

 TemperatureHumidityPressure
High85 °F (Jul 20, 5:00 PM)97% (Jul 16, 2:00 AM)30.36 "Hg (Jul 16, 2:00 AM)
Low52 °F (Jul 16, 6:00 AM)38% (Jul 20, 6:00 PM)29.85 "Hg (Jul 22, 4:00 PM)
Average67 °F79%30.08 "Hg
* Reported Jul 15 5:00 PM — Jul 30 5:00 PM, Rosenheim, Weather by CustomWeather, © 2016

Note: Actual official high and low records may vary slightly from our data, if they occured in-between our weather recording intervals... More about our weather records

Advertising

Rosenheim Weather History for the Previous 24 Hours

Scroll right to see more
 ConditionsComfort  
Time TempWeatherWind HumidityBarometerVisibility
5:00 PM
Sat, Jul 30
84 °FWarm.2 mph46%29.85 "HgN/A
4:00 PM83 °FWarm.3 mph50%29.86 "HgN/A
3:00 PM84 °FWarm.3 mph48%29.85 "HgN/A
2:00 PM83 °FWarm.2 mph52%29.86 "HgN/A
1:00 PM81 °FWarm.2 mph54%29.88 "HgN/A
12:00 PM78 °FWarm.1 mph59%29.92 "HgN/A
11:00 AM75 °FMild.1 mph67%29.94 "HgN/A
10:00 AM72 °FMild.2 mph69%29.97 "HgN/A
9:00 AM67 °FMild.2 mph79%30.00 "HgN/A
8:00 AM62 °FCool.No wind91%30.03 "HgN/A
7:00 AM61 °FPassing clouds.1 mph92%30.03 "Hg19 mi
6:00 AM60 °FCool.1 mph94%30.02 "HgN/A
5:00 AM61 °FCool.1 mph93%30.01 "HgN/A
4:00 AM61 °FCool.No wind94%30.02 "HgN/A
3:00 AM62 °FCool.1 mph93%30.02 "HgN/A
2:00 AM63 °FMild.No wind91%30.02 "HgN/A
1:00 AM64 °FMild.No wind90%30.01 "HgN/A
12:00 AM64 °FMild.No wind88%30.01 "HgN/A
11:00 PM
Fri, Jul 29
66 °FMild.No wind86%29.98 "HgN/A
10:00 PM67 °FMild.No wind80%29.97 "HgN/A
9:00 PM71 °FMild.1 mph73%29.94 "HgN/A
8:00 PM74 °FMild.1 mph61%29.92 "HgN/A
7:00 PM77 °FMild.2 mph56%29.91 "HgN/A
6:00 PM78 °FWarm.2 mph54%29.91 "HgN/A
Weather by CustomWeather, © 2016

See weather overviewHow to use our weather pages